This is the latest recevied weather packets stored in our database for station/object EA5DFV. If no packets are shown the sender has not sent any weather packets the latest 10 day(s).
| Time | Temp. | Humidity | Pressure | Rain* | Wind** | Luminosity | Snow |
|---|---|---|---|---|---|---|---|
| 1778081003 | 20.56° C | 66% | 1010.5 hPa | 0 mm | - | 775 W/m² | - |
| 1778080720 | 20.56° C | 66% | 1010.5 hPa | 0 mm | - | 740 W/m² | - |
| 1778080413 | 20° C | 68% | 1010.5 hPa | 0 mm | - | 724 W/m² | - |
| 1778080107 | 19.44° C | 68% | 1010.5 hPa | 0 mm | - | 480 W/m² | - |
| 1778079817 | 19.44° C | 68% | 1010.6 hPa | 0 mm | - | 471 W/m² | - |
| 1778079508 | 18.89° C | 69% | 1010.7 hPa | 0 mm | - | 295 W/m² | - |
| 1778079218 | 18.89° C | 69% | 1010.7 hPa | 0 mm | - | 271 W/m² | - |
| 1778078913 | 18.89° C | 69% | 1010.7 hPa | 0 mm | - | 236 W/m² | - |
| 1778078607 | 18.89° C | 69% | 1010.7 hPa | 0 mm | - | 192 W/m² | - |
| 1778078317 | 18.89° C | 69% | 1010.7 hPa | 0 mm | - | 172 W/m² | - |
| 1778078008 | 18.89° C | 69% | 1010.8 hPa | 0 mm | - | 156 W/m² | - |
| 1778077704 | 18.89° C | 69% | 1010.9 hPa | 0 mm | - | 185 W/m² | - |
| 1778077415 | 18.89° C | 69% | 1011 hPa | 0 mm | - | 190 W/m² | - |
| 1778077125 | 18.89° C | 70% | 1011 hPa | 0 mm | - | 218 W/m² | - |
| 1778076816 | 18.89° C | 70% | 1011.2 hPa | 0 mm | - | 206 W/m² | - |
| 1778076512 | 18.89° C | 70% | 1011.2 hPa | 0 mm | - | 227 W/m² | - |
| 1778076223 | 18.89° C | 70% | 1011.1 hPa | 0 mm | - | 236 W/m² | - |
| 1778075913 | 18.89° C | 70% | 1011.2 hPa | 0 mm | - | 225 W/m² | - |
| 1778075607 | 18.89° C | 71% | 1011.3 hPa | 0 mm | - | 221 W/m² | - |
| 1778075320 | 18.89° C | 71% | 1011.3 hPa | 0 mm | - | 211 W/m² | - |
| 1778075011 | 18.89° C | 71% | 1011.2 hPa | 0 mm | - | 202 W/m² | - |
| 1778074721 | 18.89° C | 71% | 1011.2 hPa | 0 mm | - | 181 W/m² | - |
| 1778074412 | 18.89° C | 72% | 1011.3 hPa | 0 mm | - | 188 W/m² | - |
| 1778074110 | 18.89° C | 72% | 1011.4 hPa | 0 mm | - | 186 W/m² | - |
| 1778073807 | 18.89° C | 72% | 1011.4 hPa | 0 mm | - | 171 W/m² | - |
* Rain latest hour (hover to see other rain measurements)
** Current wind speed in m/s (hover to see current wind gust speed)